Prague, Czech Republic

5:36 AM CEST on May 28, 2017 (GMT +0200)
Ruzyne

Weather History for LKPR - November, 2014

Change the Weather History Date:

Sunday, November 9, 2014

  Actual Average Record
Temperature  
Mean Temperature 40 °F -  
Max Temperature 45 °F 41 °F 59 °F (2008)
Min Temperature 34 °F 30 °F 28 °F (2003)
Degree Days  
Heating Degree Days 26    
Moisture  
Dew Point 41 °F    
Average Humidity 98    
Maximum Humidity 100    
Minimum Humidity 93    
Precipitation  
Precipitation 0.00 in 0.04 in - ()
Sea Level Pressure  
Sea Level Pressure 29.91 in    
Wind  
Wind Speed 4 mph ()    
Max Wind Speed 7 mph    
Max Gust Speed -    
Visibility 0.9 miles    
Events Fog , Rain    
Averages and records for this station are not official NWS values.
T = Trace of Precipitation, MM = Missing Value Source: Averaged Metar Reports

Daily Weather History Graph

Daily Weather History Graph

Search for Another Location

Airport or City:

Trip Planner

Search our weather history database for the weather conditions in past years. The results will help you decide how hot, cold, wet, or windy it might be!

Date:

Astronomy

Nov. 09, 2014 Rise Set
Actual Time 7:05 AM CET 4:26 PM CET
Civil Twilight 6:30 AM CET 5:01 PM CET
Nautical Twilight 5:51 AM CET 5:40 PM CET
Astronomical Twilight 5:14 AM CET 6:18 PM CET
Moon 6:39 PM CET (11/9) 9:27 AM CET (11/9)
Length of Visible Light 10h 31m
Length of Day
9h 21m
Waning Gibbous, 93% of the Moon is Illuminated
Nov 9
Waning Gibbous
Nov 14
Last Quarter
Nov 22
New
Nov 29
First Quarter
Dec 6
Full

Hourly Weather History & Observations

Time (CET) Temp. Windchill Dew Point Humidity Pressure Visibility Wind Dir Wind Speed Gust Speed Precip Events Conditions
12:00 AM 37 °F - 36 °F 94% 30.01 in 0 mi East 6.7 mph - - Fog Partial Fog
12:00 AM 37.4 °F 32.8 °F 35.6 °F 93% 29.95 in 0.2 mi East 5.8 mph - N/A Fog Fog
12:30 AM 37.4 °F 34.9 °F 35.6 °F 93% 29.95 in 0.2 mi East 3.5 mph - N/A Fog Fog
1:00 AM 37 °F - 36 °F 94% 29.99 in 0 mi NNW 2.2 mph - - Fog Partial Fog
1:00 AM 37.4 °F - 35.6 °F 93% 29.95 in 0.1 mi Variable 2.3 mph - N/A Fog Fog
1:30 AM 33.8 °F 30.8 °F 33.8 °F 100% 29.92 in 0.2 mi North 3.5 mph - N/A Fog Fog
2:00 AM 35 °F - 35 °F 98% 29.99 in 0 mi North 4.5 mph - - Fog Partial Fog
2:00 AM 35.6 °F - 33.8 °F 93% 29.92 in 0.2 mi North 2.3 mph - N/A Fog Fog
2:30 AM 35.6 °F - 33.8 °F 93% 29.92 in 0.2 mi NNW 2.3 mph - N/A Fog Fog
3:00 AM 36 °F - 35 °F 97% 29.97 in 0 mi North 4.5 mph - - Fog Heavy Fog
3:00 AM 35.6 °F - 35.6 °F 100% 29.92 in 0.2 mi North 2.3 mph - N/A Fog Fog
3:30 AM 37.4 °F 34.9 °F 37.4 °F 100% 29.92 in 0.1 mi NE 3.5 mph - N/A Fog Fog
4:00 AM 38 °F - 38 °F 98% 29.96 in 0 mi East 6.7 mph - - Fog Heavy Fog
4:00 AM 39.2 °F 35.0 °F 37.4 °F 93% 29.89 in 0.1 mi East 5.8 mph - N/A Fog Fog
4:30 AM 39.2 °F 35.9 °F 37.4 °F 93% 29.89 in 0.1 mi East 4.6 mph - N/A Fog Fog
5:00 AM 38 °F - 38 °F 99% 29.95 in 0 mi East 2.2 mph - - Fog Heavy Fog
5:00 AM 39.2 °F - 37.4 °F 93% 29.89 in 0.1 mi Variable 1.2 mph - N/A Fog Fog
5:30 AM 39.2 °F 37.0 °F 37.4 °F 93% 29.89 in 0.1 mi East 3.5 mph - N/A Fog Fog
6:00 AM 39 °F - 38 °F 97% 29.95 in 0 mi SE 4.5 mph - - Fog Heavy Fog
6:00 AM 39.2 °F 35.9 °F 39.2 °F 100% 29.89 in 0.1 mi ESE 4.6 mph - N/A Fog Fog
6:30 AM 39.2 °F 35.9 °F 39.2 °F 100% 29.89 in 0.2 mi East 4.6 mph - N/A Fog Fog
7:00 AM 40 °F - 39 °F 95% 29.93 in 0 mi ENE 4.5 mph - - Fog Heavy Fog
7:00 AM 39.2 °F 35.9 °F 39.2 °F 100% 29.89 in 0.1 mi East 4.6 mph - N/A Fog Fog
7:30 AM 39.2 °F 35.0 °F 39.2 °F 100% 29.89 in 0.2 mi East 5.8 mph - N/A Fog Fog
8:00 AM 39 °F - 39 °F 98% 29.94 in 0 mi East 6.7 mph - - Fog Heavy Fog
8:00 AM 39.2 °F 35.0 °F 39.2 °F 100% 29.89 in 0.2 mi East 5.8 mph - N/A   Unknown
8:03 AM 39.2 °F 35.9 °F 39.2 °F 100% 29.89 in 0.3 mi East 4.6 mph - N/A   Unknown
8:11 AM 39.2 °F 35.9 °F 39.2 °F 100% 29.89 in 0.3 mi East 4.6 mph - N/A   Unknown
8:19 AM 39.2 °F 35.9 °F 39.2 °F 100% 29.89 in 0.4 mi ENE 4.6 mph - N/A   Unknown
8:30 AM 39.2 °F 35.9 °F 39.2 °F 100% 29.89 in 0.4 mi ENE 4.6 mph - N/A   Unknown
8:39 AM 39.2 °F 35.0 °F 39.2 °F 100% 29.89 in 0.4 mi East 5.8 mph - N/A   Unknown
9:00 AM 40 °F - 39 °F 97% 29.95 in 0 mi ENE 4.5 mph - - Fog Heavy Fog
9:00 AM 39.2 °F 37.0 °F 39.2 °F 100% 29.89 in 0.4 mi East 3.5 mph - N/A   Unknown
9:15 AM 41.0 °F - 41.0 °F 100% 29.92 in 0.7 mi Variable 2.3 mph - N/A Fog Patches of Fog
9:30 AM 41.0 °F - 41.0 °F 100% 29.89 in 0.9 mi Variable 2.3 mph - N/A Fog Patches of Fog
10:00 AM 41 °F - 41 °F 98% 29.95 in 1 mi ENE 2.2 mph - - Fog Light Fog
10:00 AM 41.0 °F - 41.0 °F 100% 29.92 in 1.1 mi Variable 2.3 mph - N/A   Overcast
10:11 AM 41.0 °F - 41.0 °F 100% 29.92 in 1.1 mi Variable 2.3 mph - N/A   Light Drizzle
10:30 AM 41.0 °F - 41.0 °F 100% 29.92 in 0.9 mi North 2.3 mph - N/A   Light Drizzle
11:00 AM 42 °F - 42 °F 98% 29.95 in 1 mi North 2.2 mph - - Rain Light Drizzle
11:00 AM 42.8 °F - 41.0 °F 93% 29.92 in 1.1 mi Variable 2.3 mph - N/A   Light Drizzle
11:30 AM 42.8 °F - 42.8 °F 100% 29.89 in 1.1 mi Variable 2.3 mph - N/A   Light Drizzle
12:00 PM 44 °F - 43 °F 95% 29.94 in 1 mi East 2.2 mph - - Rain Light Drizzle
12:00 PM 42.8 °F - 42.8 °F 100% 29.89 in 1.1 mi Variable 2.3 mph - N/A   Light Drizzle
12:30 PM 44.6 °F - 42.8 °F 93% 29.89 in 1.1 mi Variable 2.3 mph - N/A   Light Drizzle
1:00 PM 44 °F - 44 °F 97% 29.93 in 1 mi ENE 2.2 mph - - Rain Light Drizzle
1:00 PM 44.6 °F - 42.8 °F 93% 29.89 in 1.1 mi Variable 1.2 mph - N/A   Overcast
1:30 PM 44.6 °F 43.1 °F 44.6 °F 100% 29.89 in 1.1 mi NNE 3.5 mph - N/A   Overcast
2:00 PM 45 °F - 44 °F 95% 29.92 in 1 mi NNE 4.5 mph - -   Mist
2:00 PM 44.6 °F 43.1 °F 44.6 °F 100% 29.89 in 1.2 mi NNE 3.5 mph - N/A   Overcast
2:30 PM 44.6 °F - 44.6 °F 100% 29.89 in 1.2 mi North 2.3 mph - N/A   Overcast
3:00 PM 45 °F - 44 °F 96% 29.92 in 1 mi NNW 2.2 mph - -   Mist
3:00 PM 44.6 °F - 44.6 °F 100% 29.89 in 1.2 mi Variable 2.3 mph - N/A   Overcast
3:30 PM 44.6 °F - 44.6 °F 100% 29.89 in 1.2 mi Variable 2.3 mph - N/A   Overcast
4:00 PM 45 °F - 44 °F 96% 29.93 in 1 mi NNW 4.5 mph - -   Mist
4:00 PM 44.6 °F - 44.6 °F 100% 29.89 in 1.1 mi Variable 2.3 mph - N/A   Overcast
4:30 PM 44.6 °F 43.1 °F 44.6 °F 100% 29.89 in 1.1 mi West 3.5 mph - N/A   Overcast
5:00 PM 45 °F - 44 °F 95% 29.93 in 2 mi WNW 4.5 mph - -   Mist
5:00 PM 44.6 °F 43.1 °F 44.6 °F 100% 29.89 in 1.7 mi WNW 3.5 mph - N/A   Overcast
5:30 PM 44.6 °F - 44.6 °F 100% 29.89 in 1.7 mi Variable 2.3 mph - N/A   Overcast
6:00 PM 45 °F - 44 °F 95% 29.93 in 2 mi NW 2.2 mph - -   Mist
6:00 PM 44.6 °F 43.1 °F 44.6 °F 100% 29.89 in 1.9 mi West 3.5 mph - N/A   Overcast
6:30 PM 44.6 °F - 44.6 °F 100% 29.89 in 1.9 mi Variable 2.3 mph - N/A   Overcast
7:00 PM 45 °F - 44 °F 95% 29.93 in 2 mi NNE 4.5 mph - -   Mist
7:00 PM 44.6 °F - 44.6 °F 100% 29.89 in 1.6 mi Variable 2.3 mph - N/A   Overcast
7:30 PM 44.6 °F 43.1 °F 44.6 °F 100% 29.89 in 1.9 mi NE 3.5 mph - N/A   Overcast
8:00 PM 44 °F - 44 °F 99% 29.93 in 2 mi North 4.5 mph - -   Mist
8:00 PM 44.6 °F - 44.6 °F 100% 29.89 in 1.7 mi Variable 2.3 mph - N/A   Overcast
8:30 PM 44.6 °F 42.2 °F 44.6 °F 100% 29.89 in 1.7 mi NNE 4.6 mph - N/A   Overcast
8:39 PM 44.6 °F 43.1 °F 44.6 °F 100% 29.89 in 1.6 mi NNE 3.5 mph - N/A   Overcast
9:00 PM 44 °F - 44 °F 98% 29.92 in 1 mi North 4.5 mph - -   Mist
9:00 PM 44.6 °F - 44.6 °F 100% 29.89 in 1.4 mi Variable 2.3 mph - N/A   Overcast
9:30 PM 44.6 °F 43.1 °F 44.6 °F 100% 29.89 in 1.4 mi North 3.5 mph - N/A   Overcast
10:00 PM 44 °F - 44 °F 97% 29.93 in 1 mi North 4.5 mph - -   Mist
10:00 PM 44.6 °F 43.1 °F 42.8 °F 93% 29.89 in 1.2 mi NNW 3.5 mph - N/A   Overcast
10:14 PM 44.6 °F 42.2 °F 42.8 °F 93% 29.89 in 1.7 mi NNW 4.6 mph - N/A   Overcast
10:30 PM 44.6 °F 43.1 °F 42.8 °F 93% 29.89 in - NNW 3.5 mph - N/A   Overcast
10:43 PM 44.6 °F 43.1 °F 44.6 °F 100% 29.89 in 2.2 mi NNW 3.5 mph - N/A   Overcast
11:00 PM 44 °F - 44 °F 98% 29.92 in 2 mi North 4.5 mph - -   Mist
11:00 PM 44.6 °F - 44.6 °F 100% 29.89 in 2.2 mi Variable 2.3 mph - N/A   Overcast
11:30 PM 44.6 °F - 44.6 °F 100% 29.89 in 2.5 mi Variable 2.3 mph - N/A   Overcast